Location: Coupvray
(48.8929°N, 2.7967°E)
Time: 20:38:59
(UTC+00:00)

Tsikada Rocket - Pass Details

Date: 14 July 2020
Orbit: 959 x 1008 km, 82.9° (Epoch: 14 August)

Event Time Altitude Azimuth Distance (km) Brightness Sun altitude
Rises 01:29:42 0° 352° (N) 3,746 8.1 -16.4°
Reaches altitude 10° 01:32:16 10° 355° (N) 2,795 7.3 -16.2°
Maximum altitude 01:38:42 69° 78° (ENE) 1,077 4.3 -15.8°
Drops below altitude 10° 01:45:04 10° 162° (SSE) 2,777 6.0 -15.3°
Enters shadow 01:45:07 10° 162° (SSE) 2,792 6.0 -15.3°
